This demonstration page uses our WeatherBlox Daily Observations layout. Learn more.

Left ArrowRight Arrow

39.51506, -84.39828

Hourly Observations for December 9, 2015

Temp ( °F °C ) Dew Point ( °F °C ) Humidity (%) Winds ( mph kmh ) Pressure ( in mb ) Visibility ( mi km ) Precip ( " mm )
12:15 am 00:15 Clear 37 2.6 33 0.6 87 87 N N/A 30 1016 10 16.0934 N/A
12:35 am 00:35 Clear 37 2.6 33 0.5 86 86 N N/A 29.94 1014 10 16.0934 N/A
12:55 am 00:55 Clear 37 2.6 33 0.6 87 87 N N/A 29.94 1014 10 16.0934 N/A
1:15 am 01:15 Clear 37 2.6 33 0.7 87 87 N N/A 29.94 1014 10 16.0934 N/A
1:35 am 01:35 Clear 36 2.2 33 0.3 87 87 N N/A 29.97 1015 7 11.26538 N/A
1:55 am 01:55 Clear 37 2.6 33 0.8 88 88 N N/A 29.94 1014 10 16.0934 N/A
2:15 am 02:15 Clear 36 2.2 33 0.4 88 88 N N/A 29.97 1015 7 11.26538 N/A
2:35 am 02:35 Clear 35 1.9 32 0.1 88 88 N N/A 29.94 1014 10 16.0934 N/A
2:55 am 02:55 Clear 34 1.2 32 -0.2 91 91 N N/A 29.94 1014 7 11.26538 N/A
3:15 am 03:15 Clear 35 1.4 32 -0.1 90 90 N N/A 29.94 1014 10 16.0934 N/A
3:35 am 03:35 Clear 34 1.2 32 -0.1 91 91 N N/A 29.94 1014 10 16.0934 N/A
3:55 am 03:55 Clear with Mist and Fog 34 1.2 32 -0.1 91 91 N N/A 29.94 1014 4 6.43736 N/A
4:15 am 04:15 Clear 34 1.2 32 -0.1 91 91 N N/A 29.94 1014 10 16.0934 N/A
4:35 am 04:35 Clear 35 1.5 32 undefined 90 90 SSW 3 6 29.91 1013 10 16.0934 N/A
4:55 am 04:55 Partly Cloudy 39 4 35 1.5 84 84 N N/A 29.88 1012 10 16.0934 N/A
5:15 am 05:15 Partly Cloudy 41 5 34 0.9 75 75 N N/A 29.88 1012 10 16.0934 N/A
5:35 am 05:35 Partly Cloudy 42 5.5 34 1.3 75 75 N N/A 29.88 1012 10 16.0934 N/A
5:55 am 05:55 Mostly Cloudy 42 5.6 34 1.2 74 74 SSW 6 9 29.88 1012 10 16.0934 N/A
6:15 am 06:15 Cloudy 47 8.2 37 3 70 70 SSW 7 11 29.88 1012 10 16.0934 N/A
6:35 am 06:35 Cloudy 49 9.6 39 3.8 67 67 SSW 8 13 29.88 1012 10 16.0934 N/A
6:55 am 06:55 Cloudy 49 9.6 38 3.5 66 66 S 9 15 29.85 1011 10 16.0934 N/A
7:15 am 07:15 Partly Cloudy 49 9.6 38 3.5 66 66 S 7 11 29.85 1011 10 16.0934 N/A
7:35 am 07:35 Partly Cloudy 49 9.6 38 3.6 66 66 S 6 9 29.85 1011 10 16.0934 N/A
7:55 am 07:55 Sunny 49 9.6 38 3.5 66 66 S 3 6 29.85 1011 10 16.0934 N/A
8:15 am 08:15 Partly Cloudy 49 9.6 38 3.5 66 66 SSW 9 15 29.85 1011 10 16.0934 N/A
8:35 am 08:35 Mostly Cloudy 49 9.6 37 2.9 63 63 SSW 10 17 29.85 1011 10 16.0934 N/A
8:55 am 08:55 Cloudy 49 9.6 37 2.9 63 63 S 9 15 29.85 1011 10 16.0934 N/A
9:15 am 09:15 Cloudy 49 9.6 37 3 64 64 SSW 9 15 29.85 1011 10 16.0934 N/A
9:35 am 09:35 Cloudy 49 9.7 37 2.6 62 62 SSW 12 19 29.85 1011 10 16.0934 N/A
9:55 am 09:55 Cloudy 51 10.3 38 3.1 61 61 SSW 12 19 29.85 1011 10 16.0934 N/A
10:15 am 10:15 Cloudy 52 10.9 38 3.6 61 61 SSW 12 19 29.85 1011 10 16.0934 N/A
10:35 am 10:35 Cloudy 53 11.7 40 4.2 60 60 S 12 19 29.85 1011 10 16.0934 N/A
10:55 am 10:55 Cloudy 55 12.5 40 4.7 59 59 SSW 8 13 29.85 1011 10 16.0934 N/A
11:15 am 11:15 Cloudy 55 12.5 40 4.5 58 58 SW 14 22 29.85 1011 10 16.0934 N/A
11:35 am 11:35 Cloudy 55 12.5 40 4.7 59 59 SW 8 13 29.85 1011 10 16.0934 N/A
11:55 am 11:55 Cloudy 55 12.5 41 5.1 61 61 SW 10 17 29.85 1011 10 16.0934 N/A
12:15 pm 12:15 Cloudy 55 12.5 41 4.8 60 60 SW 13 20 29.85 1011 10 16.0934 N/A
12:35 pm 12:35 Cloudy 55 12.5 41 4.9 60 60 SW 15 24 29.83 1010 10 16.0934 N/A
12:55 pm 12:55 Cloudy 55 12.5 41 4.9 60 60 SW 15 24 29.83 1010 10 16.0934 N/A
1:15 pm 13:15 Cloudy 56 13.6 43 5.9 60 60 SW 12 19 29.8 1009 10 16.0934 N/A
1:35 pm 13:35 Cloudy 55 12.5 41 5 61 61 SW 12 19 29.83 1010 10 16.0934 N/A
1:55 pm 13:55 Cloudy 55 12.6 41 5.2 61 61 SW 10 17 29.83 1010 10 16.0934 N/A
2:15 pm 14:15 Cloudy 55 12.5 41 5.1 61 61 SW 14 22 29.83 1010 10 16.0934 N/A
2:35 pm 14:35 Cloudy 55 12.5 42 5.5 63 63 SW 14 22 29.83 1010 10 16.0934 N/A
2:55 pm 14:55 Cloudy 55 12.5 42 5.5 63 63 SW 12 19 29.83 1010 10 16.0934 N/A
3:15 pm 15:15 Cloudy 55 12.5 42 5.6 63 63 SW 10 17 29.83 1010 10 16.0934 N/A
3:35 pm 15:35 Cloudy 55 12.5 42 5.5 63 63 SW 13 20 29.83 1010 10 16.0934 N/A
3:55 pm 15:55 Cloudy 55 12.5 42 5.6 63 63 WSW 12 19 29.83 1010 10 16.0934 N/A
4:15 pm 16:15 Cloudy 55 12.5 42 5.5 63 63 SW 9 15 29.83 1010 10 16.0934 N/A
4:35 pm 16:35 Cloudy 55 12.5 42 5.6 63 63 SW 8 13 29.85 1011 10 16.0934 N/A
4:55 pm 16:55 Cloudy 55 12.5 43 6.1 65 65 WSW 6 9 29.85 1011 10 16.0934 N/A
5:15 pm 17:15 Cloudy 55 12.5 43 6.2 66 66 WSW 6 9 29.85 1011 10 16.0934 N/A
5:35 pm 17:35 Mostly Cloudy 55 12.5 44 6.7 68 68 SW 6 9 29.85 1011 10 16.0934 N/A
5:55 pm 17:55 Mostly Cloudy 53 11.7 44 6.4 70 70 WSW 5 7 29.85 1011 10 16.0934 N/A
6:15 pm 18:15 Cloudy 55 12.5 45 7 69 69 WSW 5 7 29.88 1012 10 16.0934 N/A
6:35 pm 18:35 Mostly Cloudy 52 11 43 6 72 72 SW 7 11 29.88 1012 10 16.0934 N/A
6:55 pm 18:55 Partly Cloudy 49 9.7 41 5.2 74 74 SSW 5 7 29.88 1012 10 16.0934 N/A
7:15 pm 19:15 Clear 49 9.6 42 5.7 77 77 SW 3 6 29.88 1012 10 16.0934 N/A
7:35 pm 19:35 Clear 47 8.2 42 5.7 84 84 SSW 3 6 29.88 1012 10 16.0934 N/A
7:55 pm 19:55 Clear 44 6.8 40 4.5 85 85 N N/A 29.91 1013 10 16.0934 N/A
8:15 pm 20:15 Clear 44 6.4 39 4.1 85 85 WSW 3 6 29.91 1013 10 16.0934 N/A
8:35 pm 20:35 Clear 41 4.9 37 2.9 87 87 W 3 6 29.91 1013 10 16.0934 N/A
8:55 pm 20:55 Clear 42 5.5 38 3.5 87 87 N N/A 29.91 1013 10 16.0934 N/A
9:15 pm 21:15 Clear 42 5.5 38 3.6 88 88 N N/A 29.91 1013 7 11.26538 N/A
9:35 pm 21:35 Clear 41 5.2 38 3.4 88 88 N N/A 29.91 1013 7 11.26538 N/A
9:55 pm 21:55 Clear with Mist and Fog 40 4.7 37 3 89 89 N N/A 29.91 1013 3 4.82802 N/A
10:15 pm 22:15 Clear 40 4.4 37 2.7 89 89 N N/A 29.91 1013 7 11.26538 N/A
10:35 pm 22:35 Clear with Mist and Fog 40 4.4 37 2.6 88 88 N N/A 29.91 1013 5 8.0467 N/A
10:55 pm 22:55 Clear with Mist and Fog 40 4.3 37 2.5 88 88 N N/A 29.91 1013 5 8.0467 N/A
11:15 pm 23:15 Clear with Mist and Fog 39 4 36 2.3 89 89 N N/A 29.91 1013 4 6.43736 N/A
11:35 pm 23:35 Clear with Mist and Fog 40 4.4 37 2.8 89 89 N N/A N/A 5 8.0467 N/A
11:55 pm 23:55 Clear with Mist and Fog 39 4 37 2.5 90 90 N N/A 29.91 1013 5 8.0467 N/A

Powered by AerisWeather